sat.trackr.live / text

‹ back to catalog

STARLINK-3888

NORAD 52454 · 2022-049D

PAYLOAD ACTIVE UNKNOWN

§ Identity

Operator
Country
US
Launch date
2022-05-06
Launch site
AFETR
Launch vehicle
Mass (kg)
RCS (m²)

Purposes: comms

External: N2YO · Heavens-Above · Gunter

§ Orbital elements

Epoch: 2026-05-25T03:34:58.941120Z

Period
95.44 min
Inclination
53.2148°
Eccentricity
0.0001741
Mean motion
15.08831629 rev/d
Perigee alt
538.6 km
Apogee alt
541.0 km
Semi-major
6,917.9 km
B*
-3.9955e-5
RAAN
85.8773°
Arg perigee
61.7331°
Mean anomaly
298.3837°
Rev number
22,365

§ Raw data

STARLINK-38881 52454U 22049D   26145.14929330 -.00000924  00000+0 -39955-4 0  99972 52454  53.2148  85.8773 0001741  61.7331 298.3837 15.08831629223658

JSON: /api/v1/satellites/52454 · /tle

For live sub-satellite position, see the globe view (requires WebGL).

§ Visibility from observer

Set your observer location to see the next 7 days of passes ≥ 10°. The values pass through the URL so the page stays shareable.

No JS? Fill the form by hand. The geolocation button needs JavaScript.